Wind_Speed
6 5 7 12 17 20 26 33 38 42 46 50 55 58 58 50 44 39 36 37 37 39 41 45 47 51 56 61 64 67 68 70 71 70 72 74 75 74 74 75 76 80 82
10 10 12 15 20 22 28 33 40 44 47 49 53 58 61 54 50 44 39 38 36 37 38 40 42 45 49 52 54 56 58 60 62 63 64 66 68 70 71 72 73 75 76
14 14 17 20 26 28 31 35 41 43 48 49 52 58 62 60 53 48 44 41 40 40 40 40 41 42 43 46 49 51 54 56 57 58 60 61 61 62 63 64 64 66 67
18 18 20 24 29 33 34 36 40 42 48 51 52 58 63 63 56 52 47 44 43 42 42 42 46 47 47 48 50 51 51 52 52 53 54 56 55 54 56 57 59 60 62
21 23 25 29 32 37 35 37 38 40 48 52 53 56 62 64 61 56 51 45 44 43 44 45 47 46 46 46 47 46 46 47 48 48 49 47 48 48 50 52 55 58 61
23 22 28 32 35 39 36 36 39 40 48 53 52 55 58 61 60 57 55 54 49 44 42 44 43 45 45 43 42 43 43 43 43 43 41 43 44 47 51 55 58 60 62
26 27 27 33 34 37 39 35 38 41 49 51 52 54 58 61 61 58 56 54 51 47 45 48 47 45 43 42 42 41 41 39 39 39 41 45 49 52 56 58 61 60 62
27 31 28 34 36 41 45 36 36 41 47 49 52 53 58 60 62 60 57 56 54 49 46 46 48 48 44 41 40 40 40 40 41 43 46 49 53 57 60 62 63 63 66
26 27 31 34 35 40 37 36 38 41 46 49 51 53 59 60 59 60 59 55 58 53 50 48 48 47 46 43 41 40 42 43 46 49 52 54 56 60 62 63 63 65 69
26 24 31 35 34 38 35 36 38 42 43 49 49 54 57 60 61 61 61 58 59 55 52 50 48 48 47 46 45 44 45 47 49 51 52 55 59 61 62 63 64 66 71
27 29 33 34 34 35 37 36 38 40 44 48 51 55 58 60 62 62 61 59 59 56 51 52 51 48 49 49 49 46 45 46 47 50 55 58 59 60 61 61 64 69 75
28 31 36 35 36 46 40 36 40 42 44 48 50 54 57 58 61 64 62 58 60 57 53 52 51 48 49 51 51 49 49 48 52 56 57 57 58 58 59 62 68 73 77
32 33 38 40 42 47 42 39 42 46 45 49 51 54 57 56 58 61 66 62 60 56 55 54 52 50 50 50 52 52 51 52 55 56 56 56 56 58 61 67 72 74 78
33 37 41 44 45 43 41 40 44 47 48 49 51 54 57 56 56 61 65 67 61 56 56 53 54 51 51 51 54 54 55 56 56 56 56 56 58 61 66 70 73 76 79
42 42 41 46 45 46 42 42 44 49 50 50 52 55 55 55 55 59 64 67 63 58 57 53 52 53 52 54 55 57 58 59 59 59 57 59 60 64 69 72 74 76 81
42 39 43 45 44 40 43 43 46 50 50 49 52 55 53 55 57 60 65 66 63 58 58 55 52 53 53 53 57 59 60 61 61 62 59 61 63 66 70 72 73 78 81
44 47 44 43 42 42 42 45 47 50 50 49 52 53 53 55 57 61 65 66 64 58 56 52 51 52 54 55 58 62 61 63 62 63 61 62 64 67 71 71 75 78 81
44 46 46 46 46 45 43 45 47 50 51 48 50 52 51 52 54 62 66 66 64 58 56 53 52 52 52 55 59 64 66 64 63 64 62 62 64 68 69 73 76 79 82
49 49 49 49 48 47 44 44 46 49 50 49 51 51 50 50 57 63 65 66 62 58 57 56 54 55 55 56 60 64 67 67 64 63 62 60 63 67 70 74 76 80 86
53 52 53 51 50 49 47 46 47 50 50 50 50 47 47 51 58 63 62 65 62 59 57 58 57 55 55 58 62 64 65 65 64 64 61 60 64 69 71 76 79 82 86
52 51 53 52 52 51 52 50 49 51 52 50 50 48 49 54 60 61 63 65 61 58 57 58 59 56 56 59 61 63 64 63 62 61 61 61 66 71 74 78 82 84 86
54 55 53 51 54 55 55 50 50 52 53 51 50 48 52 54 60 60 62 65 62 58 59 59 61 57 56 59 62 62 63 61 60 58 58 61 66 70 74 78 84 84 85
58 58 55 53 57 57 55 52 53 54 53 53 50 49 53 57 60 60 63 64 60 59 60 61 62 58 57 60 62 62 62 61 61 58 56 59 64 69 73 77 82 84 83
57 58 57 55 60 59 57 56 56 54 52 53 50 52 55 60 60 61 64 63 59 59 60 63 64 59 59 60 61 62 61 60 59 58 57 61 64 69 73 76 80 84 85
57 60 59 61 65 63 60 60 59 52 54 53 52 55 58 63 62 64 64 62 59 59 61 65 64 60 59 59 60 60 60 58 57 56 56 61 67 72 75 78 79 83 83
60 60 64 68 69 64 61 61 58 57 55 55 54 56 62 64 64 66 64 62 60 60 62 66 64 60 59 60 60 59 59 58 57 56 58 64 67 72 76 78 82 83 80
Wind_Direction
256 317 335 351 347 349 347 350 352 351 352 352 352 352 351 344 339 331 325 323 315 308 302 299 295 291 288 286 286 288 288 286 287 289 289 290 290 290 289 288 288 288 287
262 285 305 328 327 334 335 344 346 351 350 352 352 354 354 349 346 340 332 328 324 320 314 307 303 300 295 292 291 292 292 292 292 293 294 293 293 292 292 292 292 291 291
270 279 294 304 315 323 327 337 341 347 347 350 352 352 355 355 349 346 340 333 328 324 321 318 315 312 309 307 304 302 300 299 299 299 297 297 298 297 297 297 296 294 295
272 280 291 301 312 315 317 325 335 344 347 347 349 351 355 357 352 348 342 335 327 321 318 315 313 312 310 309 310 308 307 306 304 303 303 301 302 300 298 300 300 302 302
275 283 292 297 305 310 311 320 334 342 346 344 347 351 354 355 352 349 346 339 333 329 323 321 320 318 317 316 315 315 315 313 311 307 305 306 307 309 309 312 311 310 309
274 290 304 302 301 310 310 322 337 340 344 342 344 351 352 355 355 349 347 344 340 336 332 329 328 325 322 322 321 321 319 316 314 314 315 317 318 316 317 318 318 316 314
275 284 299 308 307 312 323 329 335 339 341 340 341 345 348 353 355 354 350 346 343 340 336 333 330 329 328 329 329 328 326 325 323 325 324 322 321 322 323 323 321 319 317
277 288 302 306 314 314 319 331 333 340 337 338 338 342 345 349 354 353 349 348 345 341 340 335 335 337 337 333 331 331 331 330 328 325 324 324 325 325 325 324 323 321 319
277 281 303 310 311 311 316 327 330 336 334 336 336 338 343 345 351 353 349 345 345 340 340 338 340 340 339 336 332 330 329 328 327 327 326 325 327 325 325 325 323 323 322
273 284 302 306 312 311 314 321 325 332 334 334 335 337 339 343 349 350 350 344 343 340 339 341 340 342 342 340 334 331 329 328 327 327 325 327 324 326 327 327 326 327 327
274 281 294 298 311 314 316 315 321 331 329 332 334 334 335 340 344 349 348 342 343 340 340 342 342 342 341 341 339 334 329 328 329 328 329 325 328 328 329 328 329 330 332
278 287 292 298 300 313 313 310 321 328 326 329 331 331 331 337 341 345 347 342 341 339 339 340 342 340 340 342 340 337 335 334 332 331 331 331 331 330 330 331 332 333 335
278 288 292 296 299 304 309 306 319 324 323 326 327 329 329 333 337 338 345 344 341 338 339 340 342 339 340 342 343 342 339 335 333 333 334 333 334 334 334 335 336 336 339
278 287 290 294 297 303 304 302 314 321 320 322 324 327 329 333 334 337 344 344 340 336 337 338 339 340 338 340 343 342 341 338 335 336 336 334 334 335 336 338 338 339 340
275 279 292 293 296 300 303 299 306 318 317 320 322 325 328 329 330 335 339 341 338 334 336 337 338 340 338 338 341 343 342 339 339 337 335 334 335 336 339 340 341 340 341
269 284 290 290 297 299 298 297 301 316 315 317 320 324 325 324 327 333 336 338 337 333 334 336 337 337 338 337 339 341 340 339 340 339 336 336 336 338 340 343 343 342 344
274 281 279 287 298 294 297 300 303 311 313 314 317 322 324 323 327 329 333 335 336 333 335 335 337 335 336 337 338 339 341 340 339 339 338 337 337 341 342 345 343 345 347
266 267 277 287 295 299 298 300 305 308 311 313 316 320 323 322 324 329 332 334 333 333 335 335 336 334 334 334 336 338 340 340 339 340 339 339 340 341 343 344 346 348 348
264 270 279 286 290 297 296 301 304 306 310 313 316 319 321 321 323 328 330 333 331 332 336 337 336 335 335 335 336 337 338 338 338 339 340 340 340 342 343 344 347 349 351
268 272 278 284 287 294 296 300 301 305 309 310 315 319 319 318 322 326 329 331 331 329 334 336 336 335 333 333 334 336 338 338 338 338 339 341 343 342 343 344 347 348 350
267 273 275 281 284 293 295 295 299 302 305 308 313 314 315 319 323 325 327 329 328 329 332 335 334 334 332 333 334 335 335 337 339 339 338 342 341 342 345 346 347 349 349
270 273 276 280 287 291 292 292 296 299 302 306 310 310 316 320 323 323 324 326 326 328 331 333 333 333 331 331 332 335 336 335 337 338 339 340 339 341 343 344 346 347 347
270 272 275 281 286 289 289 291 293 297 302 304 306 309 316 320 321 320 322 324 324 326 330 332 332 333 332 331 331 333 335 334 337 338 340 339 337 340 342 343 345 346 346
269 272 274 280 287 286 288 288 290 295 300 303 305 309 315 318 320 319 321 322 322 324 328 331 332 331 330 330 331 332 334 334 336 338 340 337 337 339 340 343 344 345 347
270 272 277 280 281 285 286 286 288 294 296 299 304 309 312 317 317 318 319 320 320 323 327 329 330 329 330 330 329 330 332 333 336 337 337 337 339 339 342 343 343 344 347
270 273 275 277 280 283 283 284 286 290 295 297 302 306 310 314 314 317 317 319 319 322 324 326 328 327 329 329 329 330 331 332 335 336 336 338 338 340 342 343 343 345 347
Height
10830 10829 10828 10827 10826 10822 10819 10816 10812 10807 10797 10789 10784 10776 10764 10754 10745 10738 10731 10726 10721 10716 10712 10707 10703 10700 10697 10693 10689 10683 10678 10673 10669 10663 10657 10651 10644 10637 10629 10621 10616 10605 10598
10826 10825 10825 10823 10822 10818 10814 10810 10808 10803 10795 10788 10782 10774 10762 10750 10741 10733 10727 10721 10715 10710 10705 10700 10696 10691 10687 10683 10678 10672 10666 10660 10655 10650 10643 10635 10627 10620 10612 10604 10596 10585 10578
10822 10822 10821 10820 10817 10813 10809 10807 10803 10799 10793 10785 10778 10771 10760 10747 10738 10729 10722 10716 10710 10704 10698 10693 10688 10683 10678 10671 10666 10660 10655 10648 10641 10635 10627 10619 10612 10604 10596 10586 10578 10569 10560
10817 10817 10816 10814 10812 10810 10806 10803 10799 10794 10788 10781 10774 10766 10754 10744 10736 10727 10718 10710 10705 10699 10693 10687 10681 10675 10668 10661 10655 10647 10641 10634 10629 10622 10614 10606 10600 10590 10581 10574 10564 10556 10546
10813 10814 10813 10811 10809 10806 10801 10800 10795 10789 10783 10777 10770 10762 10752 10741 10729 10723 10717 10710 10700 10692 10685 10679 10671 10665 10659 10653 10645 10637 10631 10624 10618 10611 10603 10596 10587 10580 10570 10563 10552 10542 10531
10808 10808 10807 10806 10804 10801 10798 10795 10790 10784 10778 10772 10766 10759 10751 10743 10732 10721 10711 10700 10694 10686 10680 10674 10668 10657 10651 10644 10637 10630 10623 10616 10609 10602 10594 10586 10579 10569 10560 10550 10540 10528 10516
10803 10803 10803 10802 10799 10797 10793 10789 10783 10779 10774 10767 10762 10756 10748 10739 10730 10720 10711 10702 10692 10682 10672 10664 10661 10654 10645 10636 10629 10622 10615 10608 10601 10593 10586 10578 10568 10560 10549 10539 10527 10515 10502
10799 10798 10797 10796 10793 10792 10788 10784 10779 10774 10769 10764 10757 10752 10744 10735 10725 10715 10707 10698 10690 10681 10672 10663 10653 10644 10637 10630 10623 10616 10609 10602 10594 10586 10578 10569 10560 10549 10538 10527 10514 10502 10489
10795 10793 10790 10789 10788 10786 10782 10779 10774 10769 10764 10759 10753 10747 10739 10731 10721 10712 10704 10693 10684 10676 10667 10657 10650 10641 10632 10625 10617 10610 10602 10594 10586 10577 10568 10559 10550 10540 10528 10517 10504 10490 10476
10788 10788 10786 10784 10782 10780 10777 10773 10769 10763 10759 10755 10748 10741 10735 10727 10718 10707 10699 10690 10681 10671 10662 10652 10644 10637 10629 10620 10611 10603 10594 10586 10578 10569 10560 10551 10541 10530 10517 10504 10491 10477 10463
10781 10782 10780 10779 10777 10775 10770 10766 10763 10757 10754 10749 10743 10736 10728 10719 10713 10704 10694 10685 10677 10667 10656 10646 10639 10631 10623 10614 10605 10596 10588 10579 10570 10561 10553 10542 10532 10520 10508 10495 10482 10467 10452
10774 10775 10773 10772 10771 10768 10765 10760 10757 10752 10748 10744 10739 10732 10725 10716 10705 10699 10690 10680 10670 10661 10653 10643 10636 10627 10619 10609 10600 10591 10581 10572 10563 10554 10544 10533 10522 10511 10499 10485 10471 10456 10440
10768 10769 10766 10763 10763 10761 10759 10754 10750 10745 10741 10737 10733 10727 10720 10713 10703 10691 10682 10675 10666 10657 10647 10637 10629 10620 10612 10605 10594 10585 10576 10566 10556 10546 10536 10525 10514 10502 10489 10476 10461 10445 10429
10761 10761 10759 10756 10757 10755 10753 10748 10744 10739 10734 10729 10726 10719 10713 10706 10698 10687 10677 10667 10659 10652 10643 10634 10624 10615 10605 10598 10588 10579 10570 10560 10549 10539 10528 10518 10506 10493 10480 10467 10451 10435 10419
10755 10753 10752 10751 10749 10748 10745 10741 10737 10732 10727 10723 10718 10712 10706 10699 10692 10686 10675 10664 10655 10647 10640 10630 10619 10610 10599 10589 10583 10572 10561 10552 10541 10531 10521 10510 10498 10485 10472 10458 10443 10427 10410
10746 10746 10746 10745 10743 10739 10737 10733 10729 10725 10720 10715 10710 10704 10698 10692 10685 10678 10670 10660 10650 10639 10631 10622 10613 10602 10595 10584 10575 10568 10557 10546 10535 10524 10514 10501 10489 10477 10465 10451 10436 10419 10402
10738 10739 10739 10737 10735 10732 10729 10726 10722 10718 10712 10707 10703 10697 10691 10685 10678 10672 10664 10654 10646 10636 10627 10618 10611 10600 10589 10580 10569 10559 10551 10539 10529 10518 10505 10494 10482 10470 10457 10444 10429 10412 10394
10730 10730 10729 10728 10726 10724 10720 10718 10714 10710 10705 10699 10694 10689 10684 10678 10672 10665 10657 10647 10638 10631 10623 10614 10604 10596 10586 10575 10564 10551 10542 10533 10522 10510 10498 10487 10474 10463 10451 10438 10423 10405 10388
10721 10721 10720 10719 10717 10714 10711 10709 10705 10701 10696 10691 10687 10682 10677 10671 10665 10658 10650 10641 10630 10622 10614 10605 10596 10586 10576 10567 10558 10548 10533 10522 10514 10504 10493 10482 10471 10458 10445 10431 10416 10400 10382
10712 10712 10711 10710 10707 10705 10702 10700 10696 10692 10688 10683 10680 10674 10670 10664 10658 10650 10642 10635 10626 10615 10607 10597 10588 10579 10570 10560 10550 10540 10531 10518 10506 10496 10487 10476 10464 10452 10438 10424 10409 10393 10377
10701 10701 10701 10699 10697 10695 10693 10691 10687 10683 10679 10675 10672 10665 10662 10656 10649 10642 10635 10627 10620 10612 10601 10592 10583 10575 10565 10555 10545 10535 10524 10514 10502 10489 10476 10467 10456 10443 10430 10416 10402 10387 10372
10690 10690 10690 10688 10686 10684 10683 10681 10677 10674 10671 10667 10664 10657 10654 10648 10642 10635 10627 10619 10611 10603 10595 10586 10576 10567 10557 10548 10538 10528 10517 10507 10499 10489 10476 10464 10451 10439 10425 10412 10397 10384 10370
10679 10679 10678 10677 10675 10673 10673 10671 10667 10665 10662 10657 10654 10648 10645 10639 10633 10626 10619 10611 10603 10595 10587 10578 10569 10560 10550 10541 10531 10521 10510 10499 10490 10480 10472 10462 10450 10437 10424 10410 10396 10381 10367
10667 10666 10666 10665 10663 10662 10662 10660 10658 10654 10652 10647 10644 10639 10636 10630 10624 10617 10610 10603 10595 10587 10580 10572 10563 10553 10543 10533 10523 10513 10503 10493 10483 10472 10463 10455 10445 10434 10422 10408 10392 10377 10361
10653 10653 10653 10652 10651 10651 10651 10649 10648 10645 10640 10637 10634 10628 10627 10620 10614 10608 10602 10594 10586 10579 10572 10564 10555 10546 10536 10526 10516 10507 10498 10488 10477 10467 10457 10448 10437 10424 10411 10398 10385 10372 10358
10640 10640 10639 10639 10639 10638 10639 10637 10637 10633 10630 10626 10622 10618 10616 10611 10604 10598 10592 10584 10577 10570 10563 10555 10546 10537 10529 10519 10509 10500 10490 10481 10471 10461 10451 10441 10430 10419 10406 10391 10378 10366 10354